This is the latest recevied weather packets stored in our database for station/object NI4CE-10. If no packets are shown the sender has not sent any weather packets the latest 10 day(s).
| Time | Temp. | Humidity | Pressure | Rain* | Wind** | Luminosity | Snow |
|---|---|---|---|---|---|---|---|
| 1777940099 | 24.44° C | 100% | 1016.5 hPa | 0 mm | - | - | - |
| 1777939851 | 24.44° C | 100% | 1016.7 hPa | 0 mm | - | - | - |
| 1777939551 | 24.44° C | 100% | 1016.5 hPa | 0 mm | - | - | - |
| 1777939251 | 25° C | 100% | 1016.3 hPa | 0 mm | - | - | - |
| 1777939211 | 25° C | 100% | 1016.3 hPa | 0 mm | - | - | - |
| 1777938964 | 25° C | 100% | 1016.3 hPa | 0 mm | - | - | - |
| 1777938951 | 25° C | 100% | 1016.3 hPa | 0 mm | - | - | - |
| 1777938651 | 25° C | 100% | 1016.3 hPa | 0 mm | - | - | - |
| 1777938584 | 25.56° C | 100% | 1015.9 hPa | 0 mm | - | - | - |
| 1777938352 | 25° C | 100% | 1016.2 hPa | 0 mm | - | - | - |
| 1777938052 | 25.56° C | 100% | 1016.2 hPa | 0 mm | - | - | - |
| 1777937752 | 25.56° C | 100% | 1016 hPa | 0 mm | - | - | - |
| 1777937452 | 25.56° C | 100% | 1015.9 hPa | 0 mm | - | - | - |
| 1777937446 | 26.67° C | 100% | 1015.9 hPa | 0 mm | - | - | - |
| 1777937160 | 26.11° C | 100% | 1016 hPa | 0 mm | - | - | - |
| 1777937152 | 26.11° C | 100% | 1015.9 hPa | 0 mm | - | - | - |
| 1777936852 | 26.11° C | 100% | 1016 hPa | 0 mm | - | - | - |
| 1777936552 | 26.11° C | 100% | 1015.9 hPa | 0 mm | - | - | - |
| 1777936496 | 26.11° C | 100% | 1016 hPa | 0 mm | - | - | - |
| 1777936252 | 26.11° C | 100% | 1016 hPa | 0 mm | - | - | - |
| 1777935952 | 26.67° C | 100% | 1015.9 hPa | 0 mm | - | - | - |
| 1777935866 | 26.11° C | 100% | 1015.8 hPa | 0 mm | - | - | - |
| 1777935652 | 26.11° C | 100% | 1015.8 hPa | 0 mm | - | - | - |
| 1777935646 | 27.22° C | 100% | 1015.6 hPa | 0 mm | - | - | - |
| 1777935352 | 26.67° C | 100% | 1015.5 hPa | 0 mm | - | - | - |
* Rain latest hour (hover to see other rain measurements)
** Current wind speed in m/s (hover to see current wind gust speed)